EW6230 Weather Reports


time (UTC)temp
C
wind
direction
speed
KPH
gust
KPH
rain 1hr
cm
rain 24hr
cm
rain mn
cm
humidity
%
barometer
mb
20220124094553 1 63 0.0 0.0 0.00 0.00 0.00 1 1022.1
20220124093038 1 307 0.0 0.0 0.00 0.00 0.00 1 1022.5
20220124091523 1 307 0.0 0.0 0.00 0.00 0.00 1 1023.0
20220124090022 1 307 0.0 0.0 0.00 0.00 0.00 1 1022.9
20220124084513 2 307 0.0 0.0 0.00 0.00 0.00 1 1023.3
20220124083011 2 307 0.0 0.0 0.00 0.00 0.00 1 1023.5
20220124081516 2 326 0.0 0.0 0.00 0.00 0.00 1 1023.6
20220124080353 1 117 0.0 1.6 0.00 0.00 0.00 1 1023.4
20220124074657 1 65 0.0 0.0 0.00 0.00 0.00 1 1023.1
20220124073123 1 246 0.0 0.0 0.00 0.00 0.00 1 1022.6
20220124071730 1 233 0.0 0.0 0.00 0.00 0.00 1 1022.5
20220124070113 1 10 0.0 0.0 0.00 0.00 0.00 2 1022.5
20220124064604 1 10 0.0 0.0 0.00 0.00 0.00 3 1022.6
20220124063150 1 10 0.0 0.0 0.00 0.00 0.00 3 1023.0
20220124061528 1 10 0.0 0.0 0.00 0.00 0.00 3 1023.0
20220124060025 1 10 0.0 0.0 0.00 0.00 0.00 4 1023.2
20220124054528 1 10 0.0 0.0 0.00 0.00 0.00 4 1023.3
20220124053017 1 10 0.0 0.0 0.00 0.00 0.00 5 1023.4
20220124051516 1 10 0.0 0.0 0.00 0.00 0.00 5 1023.6
20220124050007 1 91 0.0 0.0 0.00 0.00 0.00 4 1023.6
20220124044502 2 91 0.0 0.0 0.00 0.00 0.00 4 1023.9
20220124043208 2 91 0.0 0.0 0.00 0.00 0.00 2 1023.9
20220124041736 2 94 0.0 0.0 0.00 0.00 0.00 2 1023.9
20220124040148 2 94 0.0 0.0 0.00 0.00 0.00 1 1024.1
20220124034602 2 94 0.0 0.0 0.00 0.00 0.00 1 1024.2
20220124033123 2 94 0.0 0.0 0.00 0.00 0.00 2 1024.2
20220124031611 3 94 0.0 0.0 0.00 0.00 0.00 1 1024.0
20220124030141 3 94 0.0 0.0 0.00 0.00 0.00 1 1023.9
20220124024528 3 94 0.0 0.0 0.00 0.00 0.00 1 1023.9
20220124023107 3 94 0.0 0.0 0.00 0.00 0.00 1 1023.8
20220124021519 3 9 0.0 0.0 0.00 0.00 0.00 1 1023.8
20220124020032 3 9 0.0 0.0 0.00 0.00 0.00 1 1023.8
20220124014606 3 28 0.0 0.0 0.00 0.00 0.00 1 1023.8
20220124013013 3 27 0.0 0.0 0.00 0.00 0.00 1 1023.8
20220124011632 3 27 0.0 0.0 0.00 0.00 0.00 1 1024.0
20220124010146 3 140 0.0 0.0 0.00 0.00 0.00 1 1024.3
20220124004643 3 141 0.0 0.0 0.00 0.00 0.00 1 1024.6
20220124003115 3 141 0.0 0.0 0.00 0.00 0.00 1 1024.6
20220124001611 3 141 0.0 0.0 0.00 0.00 0.00 1 1024.7
20220124000156 4 160 0.0 0.0 0.00 0.00 0.00 1 1024.6
20220123234651 3 160 0.0 0.0 0.00 0.00 0.00 1 1024.4
20220123233139 4 160 0.0 0.0 0.00 0.00 0.00 1 1024.7
20220123231608 4 160 0.0 0.0 0.00 0.00 0.00 1 1024.5
20220123230049 4 160 0.0 0.0 0.00 0.00 0.00 1 1024.5
20220123224548 4 160 0.0 0.0 0.00 0.00 0.00 1 1024.5
20220123223102 4 160 0.0 0.0 0.00 0.00 0.00 1 1024.4
20220123221544 5 162 0.0 0.0 0.00 0.00 0.00 1 1024.3
20220123220028 5 68 0.0 0.0 0.00 0.00 0.00 1 1024.3
20220123214628 5 68 0.0 0.0 0.00 0.00 0.00 1 1024.1
20220123213019 5 68 0.0 0.0 0.00 0.00 0.00 1 1024.2
20220123211545 5 67 0.0 0.0 0.00 0.00 0.00 1 1024.2
20220123210012 4 68 0.0 0.0 0.00 0.00 0.00 1 1024.3
20220123204505 4 53 0.0 0.0 0.00 0.00 0.00 1 1024.7
20220123203002 3 53 0.0 0.0 0.00 0.00 0.00 1 1025.2
20220123201637 3 53 0.0 0.0 0.00 0.00 0.00 1 1025.3
20220123200144 3 53 0.0 0.0 0.00 0.00 0.00 1 1025.8
20220123194637 3 25 0.0 0.0 0.00 0.00 0.00 1 1026.1
20220123193114 3 44 0.0 0.0 0.00 0.00 0.00 1 1026.3
20220123191608 3 44 0.0 0.0 0.00 0.00 0.00 1 1026.3
20220123190049 3 11 0.0 0.0 0.00 0.00 0.00 1 1026.6
20220123184619 3 309 0.0 0.0 0.00 0.00 0.00 1 1026.9
20220123183108 2 309 0.0 0.0 0.00 0.00 0.00 1 1026.9
20220123181541 2 348 0.0 0.0 0.00 0.00 0.00 2 1026.8
20220123180026 2 336 0.0 1.6 0.00 0.00 0.00 3 1026.7
20220123174525 1 48 0.0 1.6 0.00 0.00 0.00 4 1026.6
20220123173012 1 164 0.0 0.0 0.00 0.00 0.00 5 1026.4
20220123171506 1 164 0.0 0.0 0.00 0.00 0.00 6 1026.7
20220123170003 1 164 0.0 0.0 0.00 0.00 0.00 6 1026.8
20220123164624 1 204 0.0 0.0 0.00 0.00 0.00 7 1026.9
20220123163124 1 204 0.0 0.0 0.00 0.00 0.00 7 1027.1
20220123161559 1 204 0.0 0.0 0.00 0.00 0.00 7 1027.0
20220123160117 1 143 0.0 0.0 0.00 0.00 0.00 7 1027.0
20220123154544 1 3 0.0 1.6 0.00 0.00 0.00 7 1026.9
20220123153156 1 58 0.0 0.0 0.00 0.00 0.00 7 1026.7
20220123151549 1 146 0.0 0.0 0.00 0.00 0.00 8 1026.7
20220123150101 1 156 0.0 0.0 0.00 0.00 0.00 9 1026.6
20220123144525 1 156 0.0 0.0 0.00 0.00 0.00 8 1026.7
20220123143018 1 209 0.0 0.0 0.00 0.00 0.00 8 1026.8
20220123141625 1 240 0.0 0.0 0.00 0.00 0.00 8 1026.7
20220123140008 1 13 0.0 0.0 0.00 0.00 0.00 9 1026.5
20220123134518 1 13 0.0 0.0 0.00 0.00 0.00 10 1026.3
20220123133119 1 173 0.0 1.6 0.00 0.00 0.00 10 1026.3
20220123131644 1 47 0.0 0.0 0.00 0.00 0.00 9 1026.7
20220123130113 1 9 0.0 0.0 0.00 0.00 0.00 11 1026.8
20220123124624 1 9 0.0 0.0 0.00 0.00 0.00 11 1026.8
20220123123050 1 9 0.0 0.0 0.00 0.00 0.00 11 1026.9
20220123121558 1 9 0.0 0.0 0.00 0.00 0.00 11 1027.0
20220123120103 1 27 0.0 0.0 0.00 0.00 0.00 11 1027.1
20220123114552 1 27 0.0 0.0 0.00 0.00 0.00 10 1027.3
20220123113136 1 25 0.0 0.0 0.00 0.00 0.00 12 1027.4
20220123111548 1 19 0.0 0.0 0.00 0.00 0.00 13 1027.6
20220123110019 1 281 0.0 0.0 0.00 0.00 0.00 12 1027.6
20220123104520 1 281 0.0 0.0 0.00 0.00 0.00 13 1027.6
20220123103020 1 281 0.0 0.0 0.00 0.00 0.00 12 1027.5
20220123101500 1 276 0.0 0.0 0.00 0.00 0.00 12 1027.4
20220123100120 1 276 0.0 0.0 0.00 0.00 0.00 13 1027.6